Torna al catalogo

TITAN 34B AGENA D R/B

AttivoHEO
NORAD 14238·ROCKET BODY·🇺🇸 United States

Lanciato Jul 31, 1983 da Vandenberg Space Force Base

Loading…

Prossimi Passaggi (prossime 24 ore)

TLE

AggiornatoSource: Space-Track

Epoca: Sep 11, 2026, 11:36 UTC

1 14238U 83078B   26254.48338081  .00000079  00000-0  68441-3 0  9990
2 14238  63.4908  70.2026 6839180 274.3449  16.7177  2.65656144 10701

Traccia TITAN 34B AGENA D R/B in tempo reale con AllMySat

Download on the App Store